TimeAWST,TemperatureF,Dew PointF,Humidity,Sea Level PressureIn,VisibilityMPH,Wind Direction,Wind SpeedMPH,Gust SpeedMPH,PrecipitationIn,Events,Conditions,WindDirDegrees,DateUTC
12:00 AM,76,66,65,29.81,,North,5.8,,,,,10,2013-10-13 16:00:00
12:00 AM,75.2,66.2,73,29.80,6.2,North,5.8,-,N/A,,Unknown,10,2013-10-13 16:00:00
12:30 AM,77.0,66.2,69,29.80,6.2,NNE,4.6,-,N/A,,Unknown,20,2013-10-13 16:30:00
1:00 AM,75.2,68.0,78,29.80,6.2,Calm,Calm,-,N/A,,Unknown,0,2013-10-13 17:00:00
1:30 AM,77.0,68.0,74,29.80,6.2,SE,1.2,-,N/A,,Unknown,130,2013-10-13 17:30:00
2:00 AM,75,67,69,29.80,,South,2.3,,,,,190,2013-10-13 18:00:00
2:00 AM,75.2,66.2,73,29.80,6.2,South,2.3,-,N/A,,Unknown,190,2013-10-13 18:00:00
2:30 AM,77.0,68.0,74,29.80,6.2,SSE,4.6,-,N/A,,Unknown,160,2013-10-13 18:30:00
3:00 AM,76,68,70,29.81,,South,3.5,,,,,180,2013-10-13 19:00:00
3:00 AM,75.2,68.0,78,29.80,6.2,South,3.5,-,N/A,,Unknown,170,2013-10-13 19:00:00
3:30 AM,75.2,68.0,78,29.83,6.2,Calm,Calm,-,N/A,,Unknown,0,2013-10-13 19:30:00
4:00 AM,73.4,69.8,88,29.83,6.2,Calm,Calm,-,N/A,,Unknown,0,2013-10-13 20:00:00
4:30 AM,77.0,69.8,78,29.83,6.2,SSE,5.8,-,N/A,,Scattered Clouds,160,2013-10-13 20:30:00
5:00 AM,76,70,78,29.86,,SE,3.5,,,,,130,2013-10-13 21:00:00
5:00 AM,77.0,69.8,78,29.86,6.2,SE,3.5,-,N/A,,Unknown,130,2013-10-13 21:00:00
5:30 AM,75.2,71.6,89,29.86,6.2,ENE,4.6,-,N/A,,Unknown,60,2013-10-13 21:30:00
6:00 AM,78,70,70,29.87,12,NNE,4.6,,,,Partly Cloudy,20,2013-10-13 22:00:00
6:00 AM,78.8,69.8,74,29.86,6.2,NNE,4.6,-,N/A,,Unknown,20,2013-10-13 22:00:00
6:30 AM,80.6,69.8,70,29.89,6.2,WNW,1.2,-,N/A,,Unknown,290,2013-10-13 22:30:00
7:00 AM,84.2,68.0,58,29.89,6.2,Calm,Calm,-,N/A,,Unknown,0,2013-10-13 23:00:00
7:30 AM,86.0,68.0,55,29.89,6.2,South,2.3,-,N/A,,Unknown,170,2013-10-13 23:30:00
8:00 AM,88,68,41,29.90,,ESE,4.6,,,,,110,2013-10-14 00:00:00
8:00 AM,87.8,68.0,52,29.89,6.2,ESE,4.6,-,N/A,,Unknown,110,2013-10-14 00:00:00
8:30 AM,91.4,68.0,46,29.89,6.2,SSE,5.8,-,N/A,,Unknown,150,2013-10-14 00:30:00
9:00 AM,95,64,26,29.89,12,ESE,8.1,,,,Partly Cloudy,120,2013-10-14 01:00:00
9:00 AM,95.0,64.4,36,29.89,6.2,ESE,8.1,-,N/A,,Unknown,120,2013-10-14 01:00:00
9:30 AM,98.6,55.4,24,29.89,6.2,SSE,13.8,-,N/A,,Unknown,150,2013-10-14 01:30:00
10:00 AM,98.6,55.4,24,29.89,6.2,SE,12.7,-,N/A,,Unknown,140,2013-10-14 02:00:00
10:30 AM,100.4,55.4,22,29.86,6.2,ESE,12.7,-,N/A,,Unknown,110,2013-10-14 02:30:00
11:00 AM,100.4,55.4,22,29.83,6.2,SSE,10.4,-,N/A,,Unknown,150,2013-10-14 03:00:00
11:30 AM,102.2,50.0,17,29.83,6.2,SE,11.5,-,N/A,,Unknown,140,2013-10-14 03:30:00
12:00 PM,102.2,48.2,16,29.80,6.2,SE,10.4,-,N/A,,Unknown,140,2013-10-14 04:00:00
12:30 PM,104.0,48.2,15,29.80,6.2,ESE,8.1,-,N/A,,Unknown,110,2013-10-14 04:30:00
1:00 PM,104.0,48.2,15,29.77,6.2,ESE,8.1,-,N/A,,Unknown,110,2013-10-14 05:00:00
1:30 PM,104.0,46.4,14,29.74,6.2,East,8.1,-,N/A,,Unknown,80,2013-10-14 05:30:00
2:00 PM,105,43,6,29.74,,East,12.7,,,,,80,2013-10-14 06:00:00
2:00 PM,105.8,42.8,12,29.74,6.2,East,12.7,-,N/A,,Unknown,80,2013-10-14 06:00:00
2:30 PM,105.8,39.2,10,29.74,6.2,East,11.5,-,N/A,,Unknown,100,2013-10-14 06:30:00
3:00 PM,100,66,24,29.73,12,North,16.1,,,,Partly Cloudy,10,2013-10-14 07:00:00
3:00 PM,100.4,66.2,33,29.74,6.2,North,16.1,-,N/A,,Unknown,10,2013-10-14 07:00:00
3:30 PM,102.2,62.6,27,29.74,6.2,North,12.7,-,N/A,,Unknown,10,2013-10-14 07:30:00
4:00 PM,100.4,60.8,27,29.71,6.2,North,9.2,-,N/A,,Unknown,360,2013-10-14 08:00:00
4:30 PM,98.6,59.0,27,29.74,6.2,North,10.4,-,N/A,,Unknown,360,2013-10-14 08:30:00
5:00 PM,95,60,22,29.75,,North,8.1,,,,,0,2013-10-14 09:00:00
5:00 PM,95.0,60.8,32,29.74,6.2,North,8.1,-,N/A,,Unknown,360,2013-10-14 09:00:00
5:30 PM,91.4,62.6,38,29.77,6.2,North,8.1,-,N/A,,Unknown,350,2013-10-14 09:30:00
6:00 PM,92,69,37,29.79,,North,10.4,,,,,0,2013-10-14 10:00:00
6:00 PM,93.2,69.8,46,29.77,6.2,North,10.4,-,N/A,,Unknown,360,2013-10-14 10:00:00
6:30 PM,91.4,69.8,49,29.80,6.2,North,9.2,-,N/A,,Unknown,360,2013-10-14 10:30:00
7:00 PM,89.6,69.8,52,29.83,6.2,North,9.2,-,N/A,,Unknown,360,2013-10-14 11:00:00
7:30 PM,87.8,71.6,58,29.83,6.2,NNE,10.4,-,N/A,,Unknown,20,2013-10-14 11:30:00
8:00 PM,87,70,47,29.86,,North,9.2,,,,,0,2013-10-14 12:00:00
8:00 PM,87.8,69.8,55,29.86,6.2,North,9.2,-,N/A,,Unknown,360,2013-10-14 12:00:00
8:30 PM,86.0,69.8,58,29.86,6.2,North,9.2,-,N/A,,Unknown,350,2013-10-14 12:30:00
9:00 PM,85,71,54,29.89,,North,8.1,,,,,0,2013-10-14 13:00:00
9:00 PM,86.0,71.6,62,29.89,6.2,North,8.1,-,N/A,,Unknown,360,2013-10-14 13:00:00
9:30 PM,84.2,71.6,66,29.89,6.2,North,4.6,-,N/A,,Unknown,350,2013-10-14 13:30:00
10:00 PM,84.2,71.6,66,29.92,6.2,NNE,9.2,-,N/A,,Unknown,30,2013-10-14 14:00:00
10:30 PM,84.2,71.6,66,29.92,6.2,NNE,10.4,-,N/A,,Unknown,30,2013-10-14 14:30:00
11:00 PM,83,73,64,29.93,,North,5.8,,,,,0,2013-10-14 15:00:00
11:00 PM,82.4,73.4,74,29.92,6.2,North,5.8,-,N/A,,Unknown,360,2013-10-14 15:00:00
11:30 PM,82.4,73.4,74,29.92,6.2,NNE,5.8,-,N/A,,Unknown,20,2013-10-14 15:30:00